This is the latest recevied weather packets stored in our database for station/object DC1MPP-9. If no packets are shown the sender has not sent any weather packets the latest 10 day(s).
| Time | Temp. | Humidity | Pressure | Rain* | Wind** | Luminosity | Snow |
|---|---|---|---|---|---|---|---|
| 1777889882 | 23.89° C | 39% | 957 hPa | - | - | - | - |
| 1777889640 | 23.33° C | 37% | 957 hPa | - | - | - | - |
| 1777889399 | 23.33° C | 37% | 957 hPa | - | - | - | - |
| 1777889158 | 23.33° C | 35% | 957 hPa | - | - | - | - |
| 1777888917 | 24.44° C | 34% | 957 hPa | - | - | - | - |
| 1777888676 | 23.89° C | 37% | 957 hPa | - | - | - | - |
| 1777888435 | 23.33° C | 38% | 957 hPa | - | - | - | - |
| 1777888194 | 23.89° C | 43% | 957 hPa | - | - | - | - |
| 1777887953 | 23.33° C | 37% | 957 hPa | - | - | - | - |
| 1777887712 | 22.78° C | 37% | 957 hPa | - | - | - | - |
| 1777887471 | 23.33° C | 38% | 957 hPa | - | - | - | - |
| 1777887230 | 22.78° C | 39% | 957 hPa | - | - | - | - |
| 1777886989 | 22.78° C | 37% | 957 hPa | - | - | - | - |
| 1777886748 | 22.78° C | 39% | 957 hPa | - | - | - | - |
| 1777886507 | 22.22° C | 40% | 957 hPa | - | - | - | - |
| 1777886266 | 22.78° C | 39% | 957 hPa | - | - | - | - |
| 1777886025 | 22.22° C | 41% | 957 hPa | - | - | - | - |
| 1777885784 | 22.22° C | 42% | 957 hPa | - | - | - | - |
| 1777885543 | 22.78° C | 41% | 957 hPa | - | - | - | - |
| 1777885302 | 22.22° C | 39% | 957 hPa | - | - | - | - |
| 1777885060 | 22.22° C | 39% | 957 hPa | - | - | - | - |
| 1777884819 | 22.22° C | 40% | 957 hPa | - | - | - | - |
| 1777884578 | 22.22° C | 41% | 957 hPa | - | - | - | - |
| 1777884337 | 21.67° C | 40% | 957 hPa | - | - | - | - |
| 1777884096 | 21.67° C | 41% | 958 hPa | - | - | - | - |
* Rain since midnight (hover to see other rain measurements)
** Current wind speed in m/s (hover to see current wind gust speed)